Location: Unspecified
(0.0000°N, 0.0000°E)
Time: 01:26:14
(UTC+00:00)

Envisat - Pass Details

Date: 21 October 2020
Orbit: 764 x 766 km, 98.1° (Epoch: 25 October)

Event Time Altitude Azimuth Distance (km) Brightness Sun altitude
Rises 18:25:46 0° 194° (SSW) 3,230 6.6 -10.1°
Reaches altitude 10° 18:28:34 10° 209° (SSW) 2,301 6.1 -10.8°
Maximum altitude 18:32:20 21° 257° (WSW) 1,654 5.9 -11.7°
Drops below altitude 10° 18:36:07 10° 306° (NW) 2,294 6.1 -12.7°
Sets 18:38:55 0° 322° (NW) 3,216 6.6 -13.3°
